Time,TemperatureF,DewpointF,PressureIn,WindDirection,WindDirectionDegrees,WindSpeedMPH,WindSpeedGustMPH,Humidity,HourlyPrecipIn,Conditions,Clouds,dailyrainin,SoftwareType,DateUTC
2013-03-24 00:01:00,63.2,7.8,29.95,SE,130,1.0,4.0,11,0.00,,---,0.00,VWS V14.00,2013-03-24 07:01:00,
2013-03-24 00:06:00,63.2,7.8,29.95,SE,130,2.0,2.0,11,0.00,,---,0.00,VWS V14.00,2013-03-24 07:06:00,
2013-03-24 00:11:00,63.2,9.8,29.95,SE,130,0.0,2.0,12,0.00,,---,0.00,VWS V14.00,2013-03-24 07:11:00,
2013-03-24 00:16:00,62.7,9.4,29.95,SE,130,0.0,0.0,12,0.00,,---,0.00,VWS V14.00,2013-03-24 07:16:00,
2013-03-24 00:21:00,62.3,9.1,29.94,SE,130,0.0,0.0,12,0.00,,---,0.00,VWS V14.00,2013-03-24 07:21:00,
2013-03-24 00:26:00,62.1,8.9,29.94,SE,130,1.0,3.0,12,0.00,,---,0.00,VWS V14.00,2013-03-24 07:26:00,
2013-03-24 00:31:00,61.8,8.7,29.94,SE,130,0.0,0.0,12,0.00,,---,0.00,VWS V14.00,2013-03-24 07:31:00,
2013-03-24 00:36:00,61.7,8.6,29.94,SE,130,2.0,2.0,12,0.00,,---,0.00,VWS V14.00,2013-03-24 07:36:00,
2013-03-24 00:41:00,61.8,8.7,29.94,SE,130,3.0,3.0,12,0.00,,---,0.00,VWS V14.00,2013-03-24 07:41:00,
2013-03-24 00:46:00,61.8,8.7,29.94,SE,130,2.0,4.0,12,0.00,,---,0.00,VWS V14.00,2013-03-24 07:46:00,
2013-03-24 00:51:00,61.7,8.6,29.94,SE,130,3.0,5.0,12,0.00,,---,0.00,VWS V14.00,2013-03-24 07:51:00,
2013-03-24 00:57:00,61.5,8.4,29.94,SE,130,3.0,5.0,12,0.00,,---,0.00,VWS V14.00,2013-03-24 07:57:00,
2013-03-24 01:02:00,61.5,8.4,29.94,SE,130,2.0,2.0,12,0.00,,---,0.00,VWS V14.00,2013-03-24 08:02:00,
2013-03-24 01:07:00,61.6,8.5,29.94,SE,130,2.0,6.0,12,0.00,,---,0.00,VWS V14.00,2013-03-24 08:07:00,
2013-03-24 01:12:00,61.4,8.4,29.94,SE,130,4.0,4.0,12,0.00,,---,0.00,VWS V14.00,2013-03-24 08:12:00,
2013-03-24 01:17:00,61.2,8.2,29.94,SE,130,3.0,4.0,12,0.00,,---,0.00,VWS V14.00,2013-03-24 08:17:00,
2013-03-24 01:22:00,61.1,8.1,29.94,SE,130,3.0,4.0,12,0.00,,---,0.00,VWS V14.00,2013-03-24 08:22:00,
2013-03-24 01:27:00,61.0,8.1,29.94,SE,130,2.0,2.0,12,0.00,,---,0.00,VWS V14.00,2013-03-24 08:27:00,
2013-03-24 01:32:00,60.9,9.8,29.94,SE,130,2.0,3.0,13,0.00,,---,0.00,VWS V14.00,2013-03-24 08:32:00,
2013-03-24 01:37:00,60.6,9.5,29.94,SE,130,6.0,6.0,13,0.00,,---,0.00,VWS V14.00,2013-03-24 08:37:00,
2013-03-24 01:42:00,60.8,7.9,29.94,SE,130,4.0,4.0,12,0.00,,---,0.00,VWS V14.00,2013-03-24 08:42:00,
2013-03-24 01:47:00,61.3,8.3,29.94,SE,130,3.0,4.0,12,0.00,,---,0.00,VWS V14.00,2013-03-24 08:47:00,
2013-03-24 01:52:00,61.4,8.4,29.94,SE,130,2.0,4.0,12,0.00,,---,0.00,VWS V14.00,2013-03-24 08:52:00,
2013-03-24 01:57:00,61.4,8.4,29.94,SE,130,4.0,5.0,12,0.00,,---,0.00,VWS V14.00,2013-03-24 08:57:00,
2013-03-24 02:02:00,61.3,8.3,29.94,SE,130,4.0,5.0,12,0.00,,---,0.00,VWS V14.00,2013-03-24 09:02:00,
2013-03-24 02:07:00,61.3,10.1,29.94,SE,130,4.0,4.0,13,0.00,,---,0.00,VWS V14.00,2013-03-24 09:07:00,
2013-03-24 02:12:00,61.4,10.1,29.94,SE,130,3.0,6.0,13,0.00,,---,0.00,VWS V14.00,2013-03-24 09:12:00,
2013-03-24 02:17:00,61.6,10.3,29.94,SE,130,5.0,6.0,13,0.00,,---,0.00,VWS V14.00,2013-03-24 09:17:00,
2013-03-24 02:22:00,61.8,10.5,29.94,SE,130,2.0,4.0,13,0.00,,---,0.00,VWS V14.00,2013-03-24 09:22:00,
2013-03-24 02:27:00,62.1,10.7,29.94,SE,130,3.0,4.0,13,0.00,,---,0.00,VWS V14.00,2013-03-24 09:27:00,
2013-03-24 02:32:00,62.2,10.8,29.94,SE,130,0.0,2.0,13,0.00,,---,0.00,VWS V14.00,2013-03-24 09:32:00,
2013-03-24 02:37:00,61.4,10.1,29.94,SE,130,3.0,4.0,13,0.00,,---,0.00,VWS V14.00,2013-03-24 09:37:00,
2013-03-24 02:42:00,60.9,9.8,29.94,SE,130,3.0,4.0,13,0.00,,---,0.00,VWS V14.00,2013-03-24 09:42:00,
2013-03-24 02:47:00,60.8,9.7,29.94,SE,130,2.0,4.0,13,0.00,,---,0.00,VWS V14.00,2013-03-24 09:47:00,
2013-03-24 02:52:00,60.6,9.5,29.94,SE,130,2.0,4.0,13,0.00,,---,0.00,VWS V14.00,2013-03-24 09:52:00,
2013-03-24 02:57:00,60.2,9.2,29.93,SE,130,3.0,5.0,13,0.00,,---,0.00,VWS V14.00,2013-03-24 09:57:00,
2013-03-24 03:02:00,59.9,10.6,29.93,SE,130,4.0,4.0,14,0.00,,---,0.00,VWS V14.00,2013-03-24 10:02:00,
2013-03-24 03:07:00,59.8,10.5,29.93,SE,130,3.0,4.0,14,0.00,,---,0.00,VWS V14.00,2013-03-24 10:07:00,
2013-03-24 03:12:00,60.1,10.8,29.93,SE,130,3.0,4.0,14,0.00,,---,0.00,VWS V14.00,2013-03-24 10:12:00,
2013-03-24 03:17:00,59.7,10.4,29.92,SE,130,3.0,6.0,14,0.00,,---,0.00,VWS V14.00,2013-03-24 10:17:00,
2013-03-24 03:22:00,59.4,10.2,29.92,SE,130,3.0,4.0,14,0.00,,---,0.00,VWS V14.00,2013-03-24 10:22:00,
2013-03-24 03:27:00,59.3,10.1,29.92,SE,130,5.0,5.0,14,0.00,,---,0.00,VWS V14.00,2013-03-24 10:27:00,
2013-03-24 03:32:00,59.3,10.1,29.92,SE,130,2.0,5.0,14,0.00,,---,0.00,VWS V14.00,2013-03-24 10:32:00,
2013-03-24 03:37:00,59.3,10.1,29.92,SE,130,4.0,5.0,14,0.00,,---,0.00,VWS V14.00,2013-03-24 10:37:00,
2013-03-24 03:42:00,60.0,10.7,29.92,SE,130,4.0,10.0,14,0.00,,---,0.00,VWS V14.00,2013-03-24 10:42:00,
2013-03-24 03:47:00,60.8,9.7,29.92,SE,130,8.0,8.0,13,0.00,,---,0.00,VWS V14.00,2013-03-24 10:47:00,
2013-03-24 03:53:00,60.8,9.7,29.92,SE,130,5.0,10.0,13,0.00,,---,0.00,VWS V14.00,2013-03-24 10:53:00,
2013-03-24 03:58:00,60.9,9.8,29.92,SE,130,3.0,5.0,13,0.00,,---,0.00,VWS V14.00,2013-03-24 10:58:00,
2013-03-24 04:03:00,60.8,9.7,29.92,SE,130,4.0,6.0,13,0.00,,---,0.00,VWS V14.00,2013-03-24 11:03:00,
2013-03-24 04:08:00,60.5,9.4,29.92,SE,130,6.0,7.0,13,0.00,,---,0.00,VWS V14.00,2013-03-24 11:08:00,
2013-03-24 04:13:00,60.5,9.4,29.92,SE,128,4.0,9.0,13,0.00,,---,0.00,VWS V14.00,2013-03-24 11:13:00,
2013-03-24 04:18:00,60.7,9.6,29.92,ESE,117,4.0,13.0,13,0.00,,---,0.00,VWS V14.00,2013-03-24 11:18:00,
2013-03-24 04:23:00,60.9,9.8,29.92,ESE,107,7.0,12.0,13,0.00,,---,0.00,VWS V14.00,2013-03-24 11:23:00,
2013-03-24 04:28:00,61.1,9.9,29.92,East,87,7.0,13.0,13,0.00,,---,0.00,VWS V14.00,2013-03-24 11:28:00,
2013-03-24 04:33:00,61.3,10.1,29.93,East,86,7.0,9.0,13,0.00,,---,0.00,VWS V14.00,2013-03-24 11:33:00,
2013-03-24 04:38:00,61.4,10.1,29.92,East,84,6.0,11.0,13,0.00,,---,0.00,VWS V14.00,2013-03-24 11:38:00,
2013-03-24 04:43:00,61.4,10.1,29.93,East,84,7.0,8.0,13,0.00,,---,0.00,VWS V14.00,2013-03-24 11:43:00,
2013-03-24 04:48:00,61.3,10.1,29.92,East,84,2.0,8.0,13,0.00,,---,0.00,VWS V14.00,2013-03-24 11:48:00,
2013-03-24 04:53:00,61.0,9.8,29.92,East,84,2.0,7.0,13,0.00,,---,0.00,VWS V14.00,2013-03-24 11:53:00,
2013-03-24 04:58:00,60.5,9.4,29.93,East,84,9.0,11.0,13,0.00,,---,0.00,VWS V14.00,2013-03-24 11:58:00,
2013-03-24 05:03:00,60.5,9.4,29.93,East,84,5.0,11.0,13,0.00,,---,0.00,VWS V14.00,2013-03-24 12:03:00,
2013-03-24 05:08:00,60.5,11.1,29.93,East,84,2.0,5.0,14,0.00,,---,0.00,VWS V14.00,2013-03-24 12:08:00,
2013-03-24 05:13:00,60.8,12.9,29.93,East,84,0.0,1.0,15,0.00,,---,0.00,VWS V14.00,2013-03-24 12:13:00,
2013-03-24 05:18:00,61.2,13.2,29.93,East,84,3.0,5.0,15,0.00,,---,0.00,VWS V14.00,2013-03-24 12:18:00,
2013-03-24 05:23:00,61.1,14.6,29.93,East,84,0.0,0.0,16,0.00,,---,0.00,VWS V14.00,2013-03-24 12:23:00,
2013-03-24 05:28:00,61.6,13.5,29.94,East,84,5.0,5.0,15,0.00,,---,0.00,VWS V14.00,2013-03-24 12:28:00,
2013-03-24 05:33:00,61.4,13.4,29.94,East,84,2.0,5.0,15,0.00,,---,0.00,VWS V14.00,2013-03-24 12:33:00,
2013-03-24 05:38:00,60.3,12.5,29.94,East,84,2.0,5.0,15,0.00,,---,0.00,VWS V14.00,2013-03-24 12:38:00,
2013-03-24 05:43:00,60.3,15.3,29.94,East,84,3.0,5.0,17,0.00,,---,0.00,VWS V14.00,2013-03-24 12:43:00,
2013-03-24 05:48:00,59.6,11.9,29.94,East,84,5.0,7.0,15,0.00,,---,0.00,VWS V14.00,2013-03-24 12:48:00,
2013-03-24 05:53:00,59.4,10.2,29.94,East,84,2.0,7.0,14,0.00,,---,0.00,VWS V14.00,2013-03-24 12:53:00,
2013-03-24 05:58:00,59.5,10.3,29.94,East,84,3.0,6.0,14,0.00,,---,0.00,VWS V14.00,2013-03-24 12:58:00,
2013-03-24 06:03:00,60.1,10.8,29.94,East,84,5.0,5.0,14,0.00,,---,0.00,VWS V14.00,2013-03-24 13:03:00,
2013-03-24 06:08:00,60.6,11.2,29.94,East,84,2.0,6.0,14,0.00,,---,0.00,VWS V14.00,2013-03-24 13:08:00,
2013-03-24 06:13:00,60.7,11.2,29.94,East,84,0.0,2.0,14,0.00,,---,0.00,VWS V14.00,2013-03-24 13:13:00,
2013-03-24 06:18:00,60.2,10.9,29.94,East,84,2.0,5.0,14,0.00,,---,0.00,VWS V14.00,2013-03-24 13:18:00,
2013-03-24 06:23:00,60.3,12.5,29.95,East,84,2.0,3.0,15,0.00,,---,0.00,VWS V14.00,2013-03-24 13:23:00,
2013-03-24 06:28:00,61.1,11.6,29.95,East,84,5.0,5.0,14,0.00,,---,0.00,VWS V14.00,2013-03-24 13:28:00,
2013-03-24 06:33:00,59.8,12.1,29.95,East,84,0.0,0.0,15,0.00,,---,0.00,VWS V14.00,2013-03-24 13:33:00,
2013-03-24 06:38:00,59.1,13.0,29.95,East,84,0.0,0.0,16,0.00,,---,0.00,VWS V14.00,2013-03-24 13:38:00,
2013-03-24 06:43:00,58.7,12.6,29.95,East,84,3.0,5.0,16,0.00,,---,0.00,VWS V14.00,2013-03-24 13:43:00,
2013-03-24 06:48:00,58.5,12.5,29.95,East,84,3.0,6.0,16,0.00,,---,0.00,VWS V14.00,2013-03-24 13:48:00,
2013-03-24 06:53:00,58.7,14.0,29.95,East,84,1.0,3.0,17,0.00,,---,0.00,VWS V14.00,2013-03-24 13:53:00,
2013-03-24 06:58:00,58.3,12.3,29.96,East,84,5.0,6.0,16,0.00,,---,0.00,VWS V14.00,2013-03-24 13:58:00,
2013-03-24 07:03:00,57.4,13.0,29.96,East,84,5.0,5.0,17,0.00,,---,0.00,VWS V14.00,2013-03-24 14:03:00,
2013-03-24 07:08:00,57.3,12.9,29.96,East,84,3.0,5.0,17,0.00,,---,0.00,VWS V14.00,2013-03-24 14:08:00,
2013-03-24 07:13:00,57.7,14.5,29.96,East,84,2.0,5.0,18,0.00,,---,0.00,VWS V14.00,2013-03-24 14:13:00,
2013-03-24 07:18:00,58.1,13.5,29.96,East,84,3.0,5.0,17,0.00,,---,0.00,VWS V14.00,2013-03-24 14:18:00,
2013-03-24 07:23:00,58.5,13.9,29.97,East,84,0.0,5.0,17,0.00,,---,0.00,VWS V14.00,2013-03-24 14:23:00,
2013-03-24 07:28:00,59.0,14.3,29.97,East,84,5.0,6.0,17,0.00,,---,0.00,VWS V14.00,2013-03-24 14:28:00,
2013-03-24 07:33:00,59.6,13.4,29.96,East,84,3.0,5.0,16,0.00,,---,0.00,VWS V14.00,2013-03-24 14:33:00,
2013-03-24 07:38:00,60.5,14.1,29.96,East,84,0.0,0.0,16,0.00,,---,0.00,VWS V14.00,2013-03-24 14:38:00,
2013-03-24 07:43:00,61.2,14.7,29.96,East,84,0.0,0.0,16,0.00,,---,0.00,VWS V14.00,2013-03-24 14:43:00,
2013-03-24 07:48:00,62.1,15.4,29.96,East,84,0.0,0.0,16,0.00,,---,0.00,VWS V14.00,2013-03-24 14:48:00,
2013-03-24 07:53:00,62.8,16.0,29.97,East,84,0.0,0.0,16,0.00,,---,0.00,VWS V14.00,2013-03-24 14:53:00,
2013-03-24 07:58:00,63.6,16.6,29.97,East,84,0.0,0.0,16,0.00,,---,0.00,VWS V14.00,2013-03-24 14:58:00,
2013-03-24 08:03:00,64.4,15.8,29.97,East,84,0.0,0.0,15,0.00,,---,0.00,VWS V14.00,2013-03-24 15:03:00,
2013-03-24 08:08:00,65.0,16.3,29.97,East,84,0.0,0.0,15,0.00,,---,0.00,VWS V14.00,2013-03-24 15:08:00,
2013-03-24 08:13:00,65.6,16.7,29.98,East,84,0.0,0.0,15,0.00,,---,0.00,VWS V14.00,2013-03-24 15:13:00,
2013-03-24 08:18:00,66.1,15.6,29.98,East,84,0.0,0.0,14,0.00,,---,0.00,VWS V14.00,2013-03-24 15:18:00,
2013-03-24 08:23:00,66.7,16.0,29.98,East,84,0.0,0.0,14,0.00,,---,0.00,VWS V14.00,2013-03-24 15:23:00,
2013-03-24 08:29:00,67.1,16.3,29.98,East,84,1.0,5.0,14,0.00,,---,0.00,VWS V14.00,2013-03-24 15:29:00,
2013-03-24 08:34:00,67.4,14.9,29.98,East,84,0.0,1.0,13,0.00,,---,0.00,VWS V14.00,2013-03-24 15:34:00,
2013-03-24 08:39:00,67.8,15.2,29.98,East,84,0.0,0.0,13,0.00,,---,0.00,VWS V14.00,2013-03-24 15:39:00,
2013-03-24 08:44:00,68.7,15.9,29.98,East,84,0.0,0.0,13,0.00,,---,0.00,VWS V14.00,2013-03-24 15:44:00,
2013-03-24 08:49:00,69.0,16.1,29.98,East,84,0.0,5.0,13,0.00,,---,0.00,VWS V14.00,2013-03-24 15:49:00,
2013-03-24 08:54:00,68.9,16.1,29.98,East,84,0.0,0.0,13,0.00,,---,0.00,VWS V14.00,2013-03-24 15:54:00,
2013-03-24 08:59:00,69.2,16.3,29.98,East,84,0.0,0.0,13,0.00,,---,0.00,VWS V14.00,2013-03-24 15:59:00,
2013-03-24 09:04:00,69.1,16.2,29.98,East,84,0.0,0.0,13,0.00,,---,0.00,VWS V14.00,2013-03-24 16:04:00,
2013-03-24 09:09:00,69.2,16.3,29.98,East,84,0.0,6.0,13,0.00,,---,0.00,VWS V14.00,2013-03-24 16:09:00,
2013-03-24 09:14:00,69.3,16.4,29.98,East,84,0.0,6.0,13,0.00,,---,0.00,VWS V14.00,2013-03-24 16:14:00,
2013-03-24 09:19:00,69.0,16.1,29.98,East,84,0.0,5.0,13,0.00,,---,0.00,VWS V14.00,2013-03-24 16:19:00,
2013-03-24 09:24:00,69.1,16.2,29.98,East,84,0.0,0.0,13,0.00,,---,0.00,VWS V14.00,2013-03-24 16:24:00,
2013-03-24 09:29:00,69.6,16.6,29.98,East,84,0.0,0.0,13,0.00,,---,0.00,VWS V14.00,2013-03-24 16:29:00,
2013-03-24 09:34:00,70.4,15.4,29.99,East,84,0.0,0.0,12,0.00,,---,0.00,VWS V14.00,2013-03-24 16:34:00,
2013-03-24 09:39:00,71.0,13.9,29.99,East,84,0.0,0.0,11,0.00,,---,0.00,VWS V14.00,2013-03-24 16:39:00,
2013-03-24 09:44:00,71.1,14.0,29.98,East,84,0.0,2.0,11,0.00,,---,0.00,VWS V14.00,2013-03-24 16:44:00,
2013-03-24 09:49:00,70.8,13.7,29.98,East,84,0.0,7.0,11,0.00,,---,0.00,VWS V14.00,2013-03-24 16:49:00,
2013-03-24 09:54:00,70.4,15.4,29.98,East,84,0.0,2.0,12,0.00,,---,0.00,VWS V14.00,2013-03-24 16:54:00,
2013-03-24 09:59:00,70.3,13.3,29.98,East,84,0.0,0.0,11,0.00,,---,0.00,VWS V14.00,2013-03-24 16:59:00,
2013-03-24 10:04:00,71.0,13.9,29.98,East,84,0.0,0.0,11,0.00,,---,0.00,VWS V14.00,2013-03-24 17:04:00,
2013-03-24 10:09:00,71.0,13.9,29.98,East,84,7.0,9.0,11,0.00,,---,0.00,VWS V14.00,2013-03-24 17:09:00,
2013-03-24 10:14:00,71.3,12.0,29.98,East,84,0.0,7.0,10,0.00,,---,0.00,VWS V14.00,2013-03-24 17:14:00,
2013-03-24 10:19:00,71.9,12.4,29.98,East,84,0.0,0.0,10,0.00,,---,0.00,VWS V14.00,2013-03-24 17:19:00,
2013-03-24 10:24:00,72.2,12.6,29.98,East,84,0.0,1.0,10,0.00,,---,0.00,VWS V14.00,2013-03-24 17:24:00,
2013-03-24 10:29:00,72.5,12.9,29.98,East,84,0.0,7.0,10,0.00,,---,0.00,VWS V14.00,2013-03-24 17:29:00,
2013-03-24 10:34:00,72.7,13.0,29.98,East,84,8.0,9.0,10,0.00,,---,0.00,VWS V14.00,2013-03-24 17:34:00,
2013-03-24 10:39:00,72.0,10.1,29.98,East,84,5.0,7.0,9,0.00,,---,0.00,VWS V14.00,2013-03-24 17:39:00,
2013-03-24 10:44:00,72.0,10.1,29.98,East,84,0.0,0.0,9,0.00,,---,0.00,VWS V14.00,2013-03-24 17:44:00,
2013-03-24 10:49:00,72.5,10.5,29.97,East,84,7.0,11.0,9,0.00,,---,0.00,VWS V14.00,2013-03-24 17:49:00,
2013-03-24 10:54:00,72.8,13.1,29.97,East,84,0.0,3.0,10,0.00,,---,0.00,VWS V14.00,2013-03-24 17:54:00,
2013-03-24 10:59:00,73.5,13.6,29.97,East,84,1.0,1.0,10,0.00,,---,0.00,VWS V14.00,2013-03-24 17:59:00,
2013-03-24 11:04:00,73.4,13.6,29.97,East,84,9.0,11.0,10,0.00,,---,0.00,VWS V14.00,2013-03-24 18:04:00,
2013-03-24 11:09:00,73.2,13.4,29.97,East,84,5.0,11.0,10,0.00,,---,0.00,VWS V14.00,2013-03-24 18:09:00,
2013-03-24 11:14:00,73.3,13.5,29.97,East,84,2.0,14.0,10,0.00,,---,0.00,VWS V14.00,2013-03-24 18:14:00,
2013-03-24 11:19:00,73.4,11.2,29.97,East,84,9.0,15.0,9,0.00,,---,0.00,VWS V14.00,2013-03-24 18:19:00,
2013-03-24 11:24:00,74.1,11.7,29.96,East,84,5.0,11.0,9,0.00,,---,0.00,VWS V14.00,2013-03-24 18:24:00,
2013-03-24 11:30:00,74.3,11.9,29.96,East,84,0.0,7.0,9,0.00,,---,0.00,VWS V14.00,2013-03-24 18:30:00,
2013-03-24 11:36:00,74.6,14.5,29.96,East,84,7.0,14.0,10,0.00,,---,0.00,VWS V14.00,2013-03-24 18:36:00,
2013-03-24 11:41:00,74.0,11.6,29.96,East,84,0.0,17.0,9,0.00,,---,0.00,VWS V14.00,2013-03-24 18:41:00,
2013-03-24 11:46:00,73.9,11.6,29.96,East,84,0.0,9.0,9,0.00,,---,0.00,VWS V14.00,2013-03-24 18:46:00,
2013-03-24 11:51:00,74.6,12.1,29.96,East,84,6.0,14.0,9,0.00,,---,0.00,VWS V14.00,2013-03-24 18:51:00,
2013-03-24 11:59:00,74.8,9.6,29.96,SSE,148,0.0,10.0,8,0.00,,---,0.00,VWS V14.00,2013-03-24 18:59:00,
2013-03-24 12:04:00,75.1,9.8,29.95,SSE,148,0.0,8.0,8,0.00,,---,0.00,VWS V14.00,2013-03-24 19:04:00,
2013-03-24 12:09:00,75.7,12.9,29.95,SSE,148,4.0,9.0,9,0.00,,---,0.00,VWS V14.00,2013-03-24 19:09:00,
2013-03-24 12:14:00,75.8,10.3,29.95,SSE,148,0.0,10.0,8,0.00,,---,0.00,VWS V14.00,2013-03-24 19:14:00,
2013-03-24 12:19:00,75.6,10.2,29.95,SE,145,12.0,12.0,8,0.00,,---,0.00,VWS V14.00,2013-03-24 19:19:00,
2013-03-24 12:25:00,75.6,10.2,29.95,SE,145,0.0,9.0,8,0.00,,---,0.00,VWS V14.00,2013-03-24 19:25:00,
2013-03-24 12:30:00,76.8,11.1,29.94,SE,146,10.0,11.0,8,0.00,,---,0.00,VWS V14.00,2013-03-24 19:30:00,
2013-03-24 12:35:00,76.2,10.6,29.94,SSE,159,10.0,16.0,8,0.00,,---,0.00,VWS V14.00,2013-03-24 19:35:00,
2013-03-24 12:40:00,75.9,10.4,29.94,SSE,159,0.0,12.0,8,0.00,,---,0.00,VWS V14.00,2013-03-24 19:40:00,
2013-03-24 12:45:00,76.3,7.7,29.94,SSE,159,0.0,6.0,7,0.00,,---,0.00,VWS V14.00,2013-03-24 19:45:00,
2013-03-24 12:50:00,76.9,11.2,29.93,SSE,162,15.0,17.0,8,0.00,,---,0.00,VWS V14.00,2013-03-24 19:50:00,
2013-03-24 12:55:00,76.4,10.8,29.93,South,180,7.0,16.0,8,0.00,,---,0.00,VWS V14.00,2013-03-24 19:55:00,
2013-03-24 13:00:00,76.9,11.2,29.93,South,180,7.0,12.0,8,0.00,,---,0.00,VWS V14.00,2013-03-24 20:00:00,
2013-03-24 13:05:00,77.3,8.5,29.92,South,174,1.0,16.0,7,0.00,,---,0.00,VWS V14.00,2013-03-24 20:05:00,
2013-03-24 13:10:00,77.5,8.6,29.92,SSE,157,0.0,14.0,7,0.00,,---,0.00,VWS V14.00,2013-03-24 20:10:00,
2013-03-24 13:15:00,77.5,8.6,29.92,SSE,157,6.0,12.0,7,0.00,,---,0.00,VWS V14.00,2013-03-24 20:15:00,
2013-03-24 13:20:00,77.2,11.4,29.92,SSE,159,2.0,14.0,8,0.00,,---,0.00,VWS V14.00,2013-03-24 20:20:00,
2013-03-24 13:25:00,77.3,11.5,29.91,SSE,159,7.0,18.0,8,0.00,,---,0.00,VWS V14.00,2013-03-24 20:25:00,
2013-03-24 13:30:00,77.3,11.5,29.91,SSE,159,5.0,17.0,8,0.00,,---,0.00,VWS V14.00,2013-03-24 20:30:00,
2013-03-24 13:35:00,77.4,8.6,29.91,South,178,16.0,17.0,7,0.00,,---,0.00,VWS V14.00,2013-03-24 20:35:00,
2013-03-24 13:40:00,77.6,11.7,29.90,South,182,14.0,16.0,8,0.00,,---,0.00,VWS V14.00,2013-03-24 20:40:00,
2013-03-24 13:45:00,77.4,11.5,29.90,South,184,8.0,15.0,8,0.00,,---,0.00,VWS V14.00,2013-03-24 20:45:00,
2013-03-24 13:50:00,78.1,12.1,29.90,South,184,0.0,13.0,8,0.00,,---,0.00,VWS V14.00,2013-03-24 20:50:00,
2013-03-24 13:55:00,78.3,12.2,29.90,South,184,2.0,11.0,8,0.00,,---,0.00,VWS V14.00,2013-03-24 20:55:00,
2013-03-24 14:00:00,78.4,12.3,29.89,South,182,3.0,18.0,8,0.00,,---,0.00,VWS V14.00,2013-03-24 21:00:00,
2013-03-24 14:05:00,78.5,15.0,29.89,South,182,6.0,12.0,9,0.00,,---,0.00,VWS V14.00,2013-03-24 21:05:00,
2013-03-24 14:10:00,78.8,12.6,29.89,South,182,6.0,14.0,8,0.00,,---,0.00,VWS V14.00,2013-03-24 21:10:00,
2013-03-24 14:15:00,78.6,12.4,29.88,South,182,10.0,12.0,8,0.00,,---,0.00,VWS V14.00,2013-03-24 21:15:00,
2013-03-24 14:20:00,79.3,12.9,29.88,SE,144,9.0,17.0,8,0.00,,---,0.00,VWS V14.00,2013-03-24 21:20:00,
2013-03-24 14:25:00,79.8,13.3,29.88,SSE,157,6.0,16.0,8,0.00,,---,0.00,VWS V14.00,2013-03-24 21:25:00,
2013-03-24 14:30:00,79.1,12.8,29.87,SSW,207,4.0,18.0,8,0.00,,---,0.00,VWS V14.00,2013-03-24 21:30:00,
2013-03-24 14:35:00,78.9,12.6,29.87,SSW,207,8.0,8.0,8,0.00,,---,0.00,VWS V14.00,2013-03-24 21:35:00,
2013-03-24 14:40:00,79.1,12.8,29.87,SSW,205,7.0,13.0,8,0.00,,---,0.00,VWS V14.00,2013-03-24 21:40:00,
2013-03-24 14:45:00,78.9,12.6,29.87,South,187,10.0,18.0,8,0.00,,---,0.00,VWS V14.00,2013-03-24 21:45:00,
2013-03-24 14:50:00,78.5,12.4,29.87,South,184,5.0,15.0,8,0.00,,---,0.00,VWS V14.00,2013-03-24 21:50:00,
2013-03-24 14:55:00,78.8,12.6,29.87,South,184,0.0,10.0,8,0.00,,---,0.00,VWS V14.00,2013-03-24 21:55:00,
2013-03-24 15:00:00,79.1,12.8,29.87,South,184,7.0,12.0,8,0.00,,---,0.00,VWS V14.00,2013-03-24 22:00:00,
2013-03-24 15:05:00,78.8,12.6,29.86,South,174,6.0,15.0,8,0.00,,---,0.00,VWS V14.00,2013-03-24 22:05:00,
2013-03-24 15:10:00,78.9,12.6,29.86,SSE,159,7.0,14.0,8,0.00,,---,0.00,VWS V14.00,2013-03-24 22:10:00,
2013-03-24 15:15:00,79.0,12.7,29.86,SSE,159,4.0,6.0,8,0.00,,---,0.00,VWS V14.00,2013-03-24 22:15:00,
2013-03-24 15:20:00,79.4,13.0,29.86,SSE,159,4.0,9.0,8,0.00,,---,0.00,VWS V14.00,2013-03-24 22:20:00,
2013-03-24 15:25:00,79.7,13.2,29.86,SSE,159,1.0,15.0,8,0.00,,---,0.00,VWS V14.00,2013-03-24 22:25:00,
2013-03-24 15:30:00,79.7,13.2,29.86,SSE,159,4.0,14.0,8,0.00,,---,0.00,VWS V14.00,2013-03-24 22:30:00,
2013-03-24 15:35:00,79.6,13.2,29.85,SSE,156,8.0,23.0,8,0.00,,---,0.00,VWS V14.00,2013-03-24 22:35:00,
2013-03-24 15:40:00,79.6,13.2,29.85,SSE,153,8.0,17.0,8,0.00,,---,0.00,VWS V14.00,2013-03-24 22:40:00,
2013-03-24 15:45:00,79.5,15.8,29.85,SSE,153,0.0,15.0,9,0.00,,---,0.00,VWS V14.00,2013-03-24 22:45:00,
2013-03-24 15:50:00,79.7,13.2,29.85,SSE,151,13.0,17.0,8,0.00,,---,0.00,VWS V14.00,2013-03-24 22:50:00,
2013-03-24 15:55:00,79.8,13.3,29.85,SE,136,8.0,18.0,8,0.00,,---,0.00,VWS V14.00,2013-03-24 22:55:00,
2013-03-24 16:00:00,79.8,13.3,29.85,SE,136,6.0,13.0,8,0.00,,---,0.00,VWS V14.00,2013-03-24 23:00:00,
2013-03-24 16:05:00,79.6,13.2,29.85,SE,136,10.0,13.0,8,0.00,,---,0.00,VWS V14.00,2013-03-24 23:05:00,
2013-03-24 16:10:00,79.3,12.9,29.85,SE,136,4.0,12.0,8,0.00,,---,0.00,VWS V14.00,2013-03-24 23:10:00,
2013-03-24 16:15:00,79.3,12.9,29.85,SE,136,5.0,15.0,8,0.00,,---,0.00,VWS V14.00,2013-03-24 23:15:00,
2013-03-24 16:20:00,79.4,13.0,29.84,SE,141,5.0,16.0,8,0.00,,---,0.00,VWS V14.00,2013-03-24 23:20:00,
2013-03-24 16:25:00,79.8,13.3,29.84,SE,141,10.0,15.0,8,0.00,,---,0.00,VWS V14.00,2013-03-24 23:25:00,
2013-03-24 16:30:00,79.6,15.9,29.84,SE,142,10.0,24.0,9,0.00,,---,0.00,VWS V14.00,2013-03-24 23:30:00,
2013-03-24 16:35:00,79.3,15.6,29.84,SE,142,2.0,12.0,9,0.00,,---,0.00,VWS V14.00,2013-03-24 23:35:00,
2013-03-24 16:40:00,79.5,15.8,29.84,SSE,150,7.0,22.0,9,0.00,,---,0.00,VWS V14.00,2013-03-24 23:40:00,
2013-03-24 16:45:00,79.6,15.9,29.84,SSE,150,4.0,16.0,9,0.00,,---,0.00,VWS V14.00,2013-03-24 23:45:00,
2013-03-24 16:50:00,80.0,18.6,29.83,SSE,150,3.0,13.0,10,0.00,,---,0.00,VWS V14.00,2013-03-24 23:50:00,
2013-03-24 16:55:00,79.8,16.0,29.84,SE,139,11.0,24.0,9,0.00,,---,0.00,VWS V14.00,2013-03-24 23:55:00,
2013-03-24 17:01:00,79.3,15.6,29.84,SSE,150,10.0,23.0,9,0.00,,---,0.00,VWS V14.00,2013-03-25 00:01:00,
2013-03-24 17:06:00,79.0,15.4,29.84,SSE,150,7.0,10.0,9,0.00,,---,0.00,VWS V14.00,2013-03-25 00:06:00,
2013-03-24 17:11:00,79.2,15.6,29.84,SSE,150,8.0,17.0,9,0.00,,---,0.00,VWS V14.00,2013-03-25 00:11:00,
2013-03-24 17:16:00,79.3,15.6,29.83,SSE,150,8.0,18.0,9,0.00,,---,0.00,VWS V14.00,2013-03-25 00:16:00,
2013-03-24 17:21:00,78.9,15.3,29.83,SE,143,10.0,18.0,9,0.00,,---,0.00,VWS V14.00,2013-03-25 00:21:00,
2013-03-24 17:26:00,78.7,15.2,29.83,SSE,155,12.0,22.0,9,0.00,,---,0.00,VWS V14.00,2013-03-25 00:26:00,
2013-03-24 17:31:00,78.4,17.4,29.83,SSE,155,13.0,19.0,10,0.00,,---,0.00,VWS V14.00,2013-03-25 00:31:00,
2013-03-24 17:36:00,78.5,17.5,29.83,SSE,153,5.0,18.0,10,0.00,,---,0.00,VWS V14.00,2013-03-25 00:36:00,
2013-03-24 17:41:00,78.2,17.2,29.83,SSE,152,9.0,18.0,10,0.00,,---,0.00,VWS V14.00,2013-03-25 00:41:00,
2013-03-24 17:47:00,77.8,16.9,29.83,SSE,153,6.0,8.0,10,0.00,,---,0.00,VWS V14.00,2013-03-25 00:47:00,
2013-03-24 17:52:00,77.7,16.8,29.83,SSE,151,12.0,12.0,10,0.00,,---,0.00,VWS V14.00,2013-03-25 00:52:00,
2013-03-24 17:57:00,77.5,16.7,29.83,SSE,155,13.0,18.0,10,0.00,,---,0.00,VWS V14.00,2013-03-25 00:57:00,
2013-03-24 18:02:00,77.6,16.8,29.83,SSE,155,11.0,12.0,10,0.00,,---,0.00,VWS V14.00,2013-03-25 01:02:00,
2013-03-24 18:07:00,77.3,16.5,29.83,SSE,153,11.0,14.0,10,0.00,,---,0.00,VWS V14.00,2013-03-25 01:07:00,
2013-03-24 18:12:00,77.1,16.4,29.83,SSE,154,10.0,16.0,10,0.00,,---,0.00,VWS V14.00,2013-03-25 01:12:00,
2013-03-24 18:17:00,77.1,18.6,29.83,SSE,154,10.0,16.0,11,0.00,,---,0.00,VWS V14.00,2013-03-25 01:17:00,
2013-03-24 18:22:00,77.0,18.5,29.83,SSE,154,10.0,11.0,11,0.00,,---,0.00,VWS V14.00,2013-03-25 01:22:00,
2013-03-24 18:27:00,76.7,18.3,29.83,SSE,154,10.0,16.0,11,0.00,,---,0.00,VWS V14.00,2013-03-25 01:27:00,
2013-03-24 18:32:00,76.4,18.0,29.83,SSE,154,6.0,14.0,11,0.00,,---,0.00,VWS V14.00,2013-03-25 01:32:00,
2013-03-24 18:37:00,76.2,17.9,29.83,SSE,154,11.0,14.0,11,0.00,,---,0.00,VWS V14.00,2013-03-25 01:37:00,
2013-03-24 18:42:00,75.8,17.6,29.83,SSE,154,10.0,15.0,11,0.00,,---,0.00,VWS V14.00,2013-03-25 01:42:00,
2013-03-24 18:47:00,75.5,17.4,29.83,SSE,154,7.0,11.0,11,0.00,,---,0.00,VWS V14.00,2013-03-25 01:47:00,
2013-03-24 18:52:00,75.1,17.0,29.83,SSE,154,8.0,14.0,11,0.00,,---,0.00,VWS V14.00,2013-03-25 01:52:00,
2013-03-24 18:57:00,74.8,16.8,29.83,SSE,154,4.0,11.0,11,0.00,,---,0.00,VWS V14.00,2013-03-25 01:57:00,
2013-03-24 19:02:00,74.5,18.6,29.83,SSE,154,3.0,10.0,12,0.00,,---,0.00,VWS V14.00,2013-03-25 02:02:00,
2013-03-24 19:07:00,74.2,18.4,29.83,SSE,154,4.0,7.0,12,0.00,,---,0.00,VWS V14.00,2013-03-25 02:07:00,
2013-03-24 19:12:00,73.9,18.1,29.83,SSE,154,4.0,5.0,12,0.00,,---,0.00,VWS V14.00,2013-03-25 02:12:00,
2013-03-24 19:17:00,73.5,17.8,29.84,SSE,154,3.0,4.0,12,0.00,,---,0.00,VWS V14.00,2013-03-25 02:17:00,
2013-03-24 19:22:00,73.2,17.6,29.84,SSE,154,4.0,6.0,12,0.00,,---,0.00,VWS V14.00,2013-03-25 02:22:00,
2013-03-24 19:27:00,73.0,17.4,29.84,SSE,154,1.0,2.0,12,0.00,,---,0.00,VWS V14.00,2013-03-25 02:27:00,
2013-03-24 19:32:00,72.8,17.3,29.84,SSE,154,3.0,4.0,12,0.00,,---,0.00,VWS V14.00,2013-03-25 02:32:00,
2013-03-24 19:37:00,72.5,17.0,29.84,SSE,154,0.0,0.0,12,0.00,,---,0.00,VWS V14.00,2013-03-25 02:37:00,
2013-03-24 19:46:00,72.0,16.6,29.85,SSE,154,0.0,0.0,12,0.00,,---,0.00,VWS V14.00,2013-03-25 02:46:00,
2013-03-24 19:51:00,71.7,16.4,29.85,SSE,154,0.0,0.0,12,0.00,,---,0.00,VWS V14.00,2013-03-25 02:51:00,
2013-03-24 19:56:00,71.4,16.2,29.85,SSE,154,0.0,0.0,12,0.00,,---,0.00,VWS V14.00,2013-03-25 02:56:00,
2013-03-24 20:04:00,71.1,15.9,29.86,SSE,154,0.0,0.0,12,0.00,,---,0.00,VWS V14.00,2013-03-25 03:04:00,
2013-03-24 20:09:00,71.0,15.9,29.86,SSE,154,0.0,0.0,12,0.00,,---,0.00,VWS V14.00,2013-03-25 03:09:00,
2013-03-24 20:14:00,70.8,15.7,29.86,SSE,154,0.0,0.0,12,0.00,,---,0.00,VWS V14.00,2013-03-25 03:14:00,
2013-03-24 20:19:00,70.7,13.6,29.86,SSE,154,0.0,0.0,11,0.00,,---,0.00,VWS V14.00,2013-03-25 03:19:00,
2013-03-24 20:24:00,70.7,13.6,29.86,SSE,154,0.0,0.0,11,0.00,,---,0.00,VWS V14.00,2013-03-25 03:24:00,
2013-03-24 20:29:00,70.4,13.4,29.86,SSE,154,0.0,0.0,11,0.00,,---,0.00,VWS V14.00,2013-03-25 03:29:00,
2013-03-24 20:34:00,70.2,13.3,29.86,SSE,154,0.0,0.0,11,0.00,,---,0.00,VWS V14.00,2013-03-25 03:34:00,
2013-03-24 20:39:00,70.0,13.1,29.87,SSE,154,0.0,0.0,11,0.00,,---,0.00,VWS V14.00,2013-03-25 03:39:00,
2013-03-24 20:44:00,70.0,13.1,29.87,SSE,154,0.0,0.0,11,0.00,,---,0.00,VWS V14.00,2013-03-25 03:44:00,
2013-03-24 20:49:00,69.7,14.9,29.87,SSE,154,0.0,0.0,12,0.00,,---,0.00,VWS V14.00,2013-03-25 03:49:00,
2013-03-24 20:54:00,69.2,14.5,29.87,SSE,154,0.0,0.0,12,0.00,,---,0.00,VWS V14.00,2013-03-25 03:54:00,
2013-03-24 20:59:00,69.5,12.7,29.87,SSE,154,0.0,0.0,11,0.00,,---,0.00,VWS V14.00,2013-03-25 03:59:00,
2013-03-24 21:02:00,69.8,13.0,29.87,SSE,154,0.0,0.0,11,0.00,,---,0.00,VWS V14.00,2013-03-25 04:02:00,
2013-03-24 21:04:00,70.3,13.3,29.87,SSE,154,0.0,0.0,11,0.00,,---,0.00,VWS V14.00,2013-03-25 04:04:00,
2013-03-24 21:06:00,70.4,13.4,29.88,SSE,154,0.0,0.0,11,0.00,,---,0.00,VWS V14.00,2013-03-25 04:06:00,
2013-03-24 21:11:00,70.6,13.6,29.88,SSE,154,0.0,0.0,11,0.00,,---,0.00,VWS V14.00,2013-03-25 04:11:00,
2013-03-24 21:16:00,70.6,13.6,29.88,SSE,154,0.0,0.0,11,0.00,,---,0.00,VWS V14.00,2013-03-25 04:16:00,
2013-03-24 21:24:00,70.5,13.5,29.88,SSE,154,0.0,0.0,11,0.00,,---,0.00,VWS V14.00,2013-03-25 04:24:00,
2013-03-24 21:29:00,70.4,13.4,29.88,SSE,154,0.0,0.0,11,0.00,,---,0.00,VWS V14.00,2013-03-25 04:29:00,
2013-03-24 21:34:00,69.8,14.9,29.88,SSE,154,0.0,0.0,12,0.00,,---,0.00,VWS V14.00,2013-03-25 04:34:00,
2013-03-24 21:39:00,69.6,14.8,29.88,SSE,154,0.0,0.0,12,0.00,,---,0.00,VWS V14.00,2013-03-25 04:39:00,
2013-03-24 21:44:00,69.2,14.5,29.88,SSE,154,4.0,5.0,12,0.00,,---,0.00,VWS V14.00,2013-03-25 04:44:00,
2013-03-24 21:49:00,68.4,13.8,29.88,SSE,154,3.0,4.0,12,0.00,,---,0.00,VWS V14.00,2013-03-25 04:49:00,
2013-03-24 21:54:00,68.8,14.1,29.89,SSE,154,0.0,3.0,12,0.00,,---,0.00,VWS V14.00,2013-03-25 04:54:00,
2013-03-24 21:59:00,69.6,14.8,29.89,SSE,154,0.0,0.0,12,0.00,,---,0.00,VWS V14.00,2013-03-25 04:59:00,
2013-03-24 22:04:00,68.5,13.9,29.89,SSE,154,3.0,4.0,12,0.00,,---,0.00,VWS V14.00,2013-03-25 05:04:00,
2013-03-24 22:09:00,67.1,14.6,29.89,SSE,154,4.0,4.0,13,0.00,,---,0.00,VWS V14.00,2013-03-25 05:09:00,
2013-03-24 22:14:00,66.5,14.2,29.89,SSE,154,2.0,5.0,13,0.00,,---,0.00,VWS V14.00,2013-03-25 05:14:00,
2013-03-24 22:19:00,66.4,14.1,29.89,SSE,154,2.0,4.0,13,0.00,,---,0.00,VWS V14.00,2013-03-25 05:19:00,
2013-03-24 22:24:00,66.6,14.2,29.89,SSE,154,2.0,4.0,13,0.00,,---,0.00,VWS V14.00,2013-03-25 05:24:00,
2013-03-24 22:30:00,66.4,14.1,29.89,SSE,154,0.0,0.0,13,0.00,,---,0.00,VWS V14.00,2013-03-25 05:30:00,
2013-03-24 22:35:00,66.4,14.1,29.89,SSE,154,4.0,6.0,13,0.00,,---,0.00,VWS V14.00,2013-03-25 05:35:00,
2013-03-24 22:40:00,66.8,14.4,29.89,SSE,154,0.0,4.0,13,0.00,,---,0.00,VWS V14.00,2013-03-25 05:40:00,
2013-03-24 22:45:00,67.3,14.8,29.89,SSE,154,2.0,5.0,13,0.00,,---,0.00,VWS V14.00,2013-03-25 05:45:00,
2013-03-24 22:50:00,67.2,14.7,29.89,SSE,154,7.0,8.0,13,0.00,,---,0.00,VWS V14.00,2013-03-25 05:50:00,
2013-03-24 22:55:00,67.0,14.6,29.90,SSE,154,6.0,8.0,13,0.00,,---,0.00,VWS V14.00,2013-03-25 05:55:00,
2013-03-24 23:00:00,67.2,14.7,29.90,SSE,154,4.0,7.0,13,0.00,,---,0.00,VWS V14.00,2013-03-25 06:00:00,
2013-03-24 23:05:00,67.3,14.8,29.89,SSE,154,3.0,8.0,13,0.00,,---,0.00,VWS V14.00,2013-03-25 06:05:00,
2013-03-24 23:10:00,67.0,14.6,29.90,SSE,154,0.0,4.0,13,0.00,,---,0.00,VWS V14.00,2013-03-25 06:10:00,
2013-03-24 23:15:00,66.7,14.3,29.90,SSE,154,5.0,7.0,13,0.00,,---,0.00,VWS V14.00,2013-03-25 06:15:00,
2013-03-24 23:20:00,66.7,14.3,29.90,SSE,154,5.0,7.0,13,0.00,,---,0.00,VWS V14.00,2013-03-25 06:20:00,
2013-03-24 23:25:00,67.0,14.6,29.90,SSE,154,6.0,7.0,13,0.00,,---,0.00,VWS V14.00,2013-03-25 06:25:00,
2013-03-24 23:30:00,67.2,14.7,29.89,SSE,154,8.0,12.0,13,0.00,,---,0.00,VWS V14.00,2013-03-25 06:30:00,
2013-03-24 23:35:00,67.3,14.8,29.90,SSE,154,5.0,8.0,13,0.00,,---,0.00,VWS V14.00,2013-03-25 06:35:00,
2013-03-24 23:40:00,67.1,14.6,29.89,SSE,154,6.0,10.0,13,0.00,,---,0.00,VWS V14.00,2013-03-25 06:40:00,
2013-03-24 23:45:00,66.8,14.4,29.89,SSE,154,7.0,8.0,13,0.00,,---,0.00,VWS V14.00,2013-03-25 06:45:00,
2013-03-24 23:50:00,66.5,14.2,29.89,SSE,154,2.0,7.0,13,0.00,,---,0.00,VWS V14.00,2013-03-25 06:50:00,
2013-03-24 23:55:00,66.1,13.9,29.89,SSE,154,2.0,6.0,13,0.00,,---,0.00,VWS V14.00,2013-03-25 06:55:00,